Terminal Aerodrome Forecast
Issued by NWS

Home | Current Version | Previous Version | Text Only | Print | Product List | Glossary On
Versions: 1 2 3 4 5 6 7 8 9 10 11 12 13 14 15 16
000
FTUS45 KCYS 232300
TAFRWL
TAF
KRWL 232329Z 2400/2424 27024G35KT P6SM SCT090 OVC150
     FM240100 30020KT P6SM SCT090
     FM240400 29014KT P6SM SCT090
     FM241300 24024G35KT P6SM BKN200=

USA.gov is the U.S. government's official web portal to all federal, state and local government web resources and services.